Time, Bi214, K40, Cs134, Cs137
2014-06-24 05:04:36,34.7766719411,1.08340914139,19.4467466637,2.11779447948,0.91789850021,0.390586099881,1.08175316119,0.505461717817
2014-06-24 06:05:17,26.906019368,1.0140818176,18.1546725068,2.10139240756,0.340091053755,0.387130075379,0.554123697765,0.488536772269
2014-06-24 07:05:59,21.2766777364,0.955249142592,19.6826535197,2.0991206219,1.14866467257,0.391685357441,0.939394392489,0.492775388066
2014-06-24 08:06:40,19.8125269344,0.928612985371,21.3430747281,2.12527927156,0.637253018488,0.37873196541,1.01029412714,0.48798537897
2014-06-24 09:07:21,14.0501375806,0.882630886527,17.5647522233,2.0814446769,0.639702260557,0.380355434443,1.38455357794,0.494221290889
2014-06-24 10:08:04,12.6210766088,0.85377496162,20.4251074359,2.1015879399,0.719030539402,0.385707368049,1.20243334327,0.489653320872
2014-06-24 11:08:44,9.35263920294,0.834657110823,18.1946168231,2.07880285139,1.00594092463,0.384111672392,1.5158781881,0.495580762321
2014-06-24 12:09:24,7.97149620463,0.806175189614,20.6513948739,2.10483468209,0.539438347185,0.390859708959,1.7081049617,0.480709728581
2014-06-24 13:10:03,9.54604718808,0.824221104706,18.6227430244,2.07841804869,0.672420644933,0.382196175211,1.15166538056,0.489706284836
2014-06-24 14:10:43,9.7913917474,0.821784239085,19.5330253757,2.09892168038,0.816994649747,0.386816956093,1.06063130591,0.489890383786
2014-06-24 15:11:24,8.10429917839,0.80568633758,19.7438680533,2.10374972654,0.994198176475,0.379777643836,1.52576200119,0.491967273117
2014-06-24 16:12:04,8.70266499423,0.797847579186,21.2729313163,2.11019402559,1.09448485237,0.387333137553,1.54603910417,0.489904909502
2014-06-24 17:12:48,8.09815253138,0.802126126621,19.0090328526,2.07833159164,1.04544107908,0.377563075659,1.2425651881,0.484380547957
2014-06-24 18:13:27,7.00200141427,0.802308027077,17.8204529558,2.07313502046,0.7190659001,0.381030300257,0.423606774289,0.476976506301
2014-06-24 19:14:09,6.76653146574,0.78367248988,19.6233668272,2.09242260121,0.849624307115,0.379637974446,1.07070930899,0.485445739498
2014-06-24 20:14:48,5.48633293445,0.773710738252,18.385655084,2.08119621263,0.698093624526,0.378767761768,1.141464222,0.483954850517
2014-06-24 21:15:29,4.7976095431,0.763302502751,16.8525229267,2.05787657257,0.65846535216,0.37140550089,0.555113844347,0.465435743855
2014-06-24 22:16:07,4.17192533998,0.758217868643,20.3305117468,2.09465286257,0.837923112343,0.384362760968,1.38380576553,0.481278077449
2014-06-24 23:16:47,4.22419593635,0.7609564572,19.9714565738,2.09614066676,0.795993328574,0.379975358132,1.03020990272,0.476863079159
2014-06-25 00:17:29,5.87028183428,0.78018247539,17.8950924624,2.07315338798,0.558307324961,0.372918897193,0.878611436237,0.474908234257
2014-06-25 01:18:09,6.26840509883,0.788456342928,17.7697420621,2.06913920822,0.597918778311,0.375648704786,0.727027015723,0.478979837978
2014-06-25 02:18:50,5.59983497801,0.778221141574,18.4209961807,2.08075837774,0.572218985192,0.379104587795,0.706759771266,0.479489254287
2014-06-25 03:19:30,5.04292171171,0.77042623733,19.321945475,2.08606625164,0.602648201903,0.38819394163,1.69681816927,0.487327135993
2014-06-25 04:20:10,4.45744238952,0.765657121317,17.8281721638,2.0687003833,0.737746180037,0.385838258377,1.1513434616,0.482698052419
2014-06-25 05:20:50,4.42300503388,0.762505690266,16.350333974,2.05853949502,0.905482371524,0.389906134868,1.12109171771,0.477433191938
2014-06-25 06:21:30,4.51083902232,0.753213885952,18.7723423835,2.06868480413,0.332231196489,0.37485294942,1.15148867599,0.484513416519
2014-06-25 07:22:11,5.02799086044,0.767866359469,18.9040728051,2.08331686283,0.754050920566,0.375406008173,1.18165103278,0.491291485695
2014-06-25 08:22:50,4.32653593709,0.766906190182,19.6083289192,2.0887452997,0.842578039882,0.387837771786,0.77757635194,0.480413758776
2014-06-25 09:23:30,5.3047309404,0.767323493472,18.5824381562,2.07893920584,0.733082189399,0.391343598707,1.20190593001,0.483372987096
2014-06-25 10:24:09,4.19424808863,0.762406583349,19.4662477218,2.08094343814,0.604987044338,0.385433984137,1.16142819221,0.490026298233
2014-06-25 11:24:49,6.32751493933,0.766647876802,18.2968499522,2.07626467698,0.677186228405,0.380968382522,1.67660397672,0.490246088868
2014-06-25 12:25:29,4.74107753441,0.763226055293,17.5158274987,2.07144816399,0.842581310137,0.378782770636,1.08068401033,0.475726305211
2014-06-25 13:26:10,2.86950799707,0.741000360333,18.6400793533,2.07706345563,0.756380901251,0.377181359956,0.565484642572,0.477155509437
2014-06-25 14:26:51,3.0466227011,0.729128168673,16.3574795602,2.05252824035,1.07079164569,0.369322439777,1.1816066484,0.485405825153
2014-06-25 15:27:31,1.43602995738,0.721654272636,19.7679842188,2.09648838786,0.709821741833,0.364242651271,0.999760473161,0.485738868525
2014-06-25 16:28:14,0.0,0.707461519118,17.9570994718,2.07431080366,1.21031394831,0.375070321188,1.23193059516,0.480006277199
2014-06-25 17:28:53,3.19193673182,0.730491749609,20.3470130504,2.10205284031,0.181301425512,0.364428821278,1.1613194473,0.474712386055
2014-06-25 18:29:33,2.99248366455,0.735401912938,18.2438179038,2.07151939123,0.914694052593,0.369438264225,1.44398700946,0.490741026603
2014-06-25 19:30:14,2.48891825049,0.729383979296,19.5407687076,2.08299864909,0.47234691106,0.371201852334,0.656476988204,0.469086450147
2014-06-25 20:30:56,2.28887629341,0.725969562427,17.7289723724,2.12031602269,0.488938803185,0.389227036314,1.06670734782,0.503810626803
2014-06-25 21:35:51,2.74293654421,0.728376007708,19.7996111046,2.07889369048,0.956546905957,0.378549372062,1.26214794747,0.475914607619
2014-06-25 22:36:32,2.65146596488,0.727607504315,21.3090894494,2.10204442957,1.0123976132,0.379915200079,1.02999506578,0.474835805178
2014-06-25 23:37:07,1.2792572259,0.718677598104,20.5315605806,2.09604527796,1.21722325262,0.375793282605,1.0400949411,0.474630463965
2014-06-26 00:37:46,2.26805816416,0.724349181918,21.0330870864,2.09619249521,0.900690805632,0.386258561443,1.45393220852,0.483774356028
2014-06-26 01:38:25,1.63484303209,0.726273106988,18.4707518793,2.0768606502,0.756386681824,0.372449650114,1.21171699795,0.482108118687
2014-06-26 02:39:03,4.66000383347,0.767689222273,18.6624142469,2.08111278242,0.621304091633,0.379575170762,1.52499625729,0.491665657834
2014-06-26 03:39:42,6.33330535677,0.773798814086,19.0741081278,2.08301941546,1.01022888276,0.37825437582,1.24219195485,0.485816037436
2014-06-26 04:40:21,4.78903403351,0.763525034214,17.2335936252,2.06484074559,0.882083223588,0.36741398025,0.949262857342,0.487576770858
2014-06-26 05:41:02,7.17618135762,0.792460974007,19.3442935387,2.08463415896,0.58637632893,0.375835867824,0.89880446433,0.480323294276
2014-06-26 06:41:41,7.73491598498,0.789822681664,18.2784302755,2.07788686592,0.64227210639,0.377213841524,0.494834758178,0.487901090431
2014-06-26 07:42:21,6.77118074405,0.794293351409,18.5447412844,2.08003312745,1.09181518313,0.371637548854,1.11095322372,0.482713348071
2014-06-26 08:43:00,7.55833740589,0.797480545573,19.382732713,2.09105156078,0.698135990342,0.378659813935,0.969538246774,0.498145417807
2014-06-26 09:43:41,7.11305034438,0.790575656971,20.5699512409,2.10031246744,0.7517235283,0.378204791235,1.21190866368,0.486456887212
2014-06-26 10:44:22,8.17195638308,0.801193822304,20.0421345127,2.08576895224,0.984655365117,0.386181315971,1.61602841347,0.493162383173
2014-06-26 11:45:02,4.39607689462,0.755537795685,19.3685156858,2.08395256809,0.698177729066,0.369275114733,0.949281852454,0.477495445749
2014-06-26 12:45:42,2.91951888804,0.731908562089,20.7050606383,2.10396693209,0.705181386171,0.379243459941,0.626253727439,0.482516077705
2014-06-26 13:46:22,2.57587057403,0.732869419493,17.1785371906,2.0641205139,1.08917302258,0.383475980409,1.19145674399,0.479936598075
2014-06-26 14:47:03,0.566347973259,0.709293126749,18.2711619371,2.07507432834,0.861115120093,0.369793637197,0.89878386611,0.479309714634
2014-06-26 15:47:44,1.26036122564,0.705586486725,18.4697189977,2.07134551124,0.765697390218,0.379575325841,0.807946662766,0.487123643624
2014-06-26 16:48:24,2.22169691267,0.725115492514,17.0401222665,2.05478063785,0.958946602852,0.375796890156,1.20171223838,0.491596797371
2014-06-26 17:49:04,0.861986505378,0.712371104838,19.3682638658,2.07989289795,0.609751419273,0.370515868233,0.858412042497,0.477636170601
2014-06-26 18:49:45,1.81075295064,0.723486788224,20.2282530454,2.09219799108,0.686560853039,0.369519821435,0.777661104151,0.464660436092
2014-06-26 19:50:27,1.80325270121,0.722124817315,18.6526688065,2.07133829254,1.13577707879,0.37781275832,1.05019561758,0.482094274995
2014-06-26 20:51:09,1.40140945694,0.712537092332,21.5587601032,2.10520205437,0.989072119687,0.380444446127,0.918959573315,0.483073227808
2014-06-26 21:51:50,1.12813205557,0.716644322895,20.0812514695,2.0836051785,0.902989496796,0.378916599038,1.30243789549,0.481824149893
2014-06-26 22:52:32,2.10643517444,0.723502218483,17.9782125621,2.06662799528,0.558564057636,0.368037158846,1.26213233609,0.472468046213
2014-06-26 23:53:11,3.87987929781,0.753884845569,19.0860339261,2.07932525693,0.688885569326,0.366640685386,0.898788669856,0.480197333172
2014-06-27 00:53:51,4.21883628926,0.748880583122,18.2178705791,2.06665788512,0.730772140884,0.371272091025,0.717045529886,0.480696323156
2014-06-27 01:54:30,3.99517517697,0.767733838577,18.5090117646,2.07648998788,0.630690206014,0.368120716076,1.19153268828,0.487576055565
2014-06-27 02:55:10,5.13638454577,0.763076963889,19.245519409,2.08963314337,0.411799229395,0.375506376824,0.828117757803,0.476641986295
2014-06-27 03:55:49,5.65285959819,0.762195002697,18.4780373005,2.08321161418,0.919345409037,0.382238383585,0.878601786349,0.477255016936
2014-06-27 04:56:28,4.28837566687,0.752125609851,19.9360875869,2.08929635559,0.532908575324,0.376170540412,1.27232026544,0.488430727034
2014-06-27 05:57:08,4.48737111828,0.756582715967,16.8160708123,2.05304563369,0.626040325383,0.383002172619,1.86783030006,0.481890491719
2014-06-27 06:57:50,5.74590898069,0.777369677219,18.9676798148,2.0746670835,0.667868431944,0.378455131176,1.25235577321,0.482274395652
2014-06-27 07:58:29,6.17506316205,0.785219543252,17.3477150376,2.06637100054,0.900779587129,0.377287727697,1.17151177928,0.47970217685
2014-06-27 08:59:09,8.5173085692,0.803365487934,19.1813957233,2.09126239328,0.593308623209,0.376638674538,1.21199727193,0.490699342112
2014-06-27 09:59:45,9.76234773546,0.819181707443,18.4118716491,2.07932154034,0.709801625643,0.382881014604,1.1210093748,0.494156485152
2014-06-27 11:00:26,6.95279680631,0.784047689024,19.6045185939,2.0928016981,0.618957697015,0.382386803525,0.84830383474,0.479722651831
2014-06-27 12:01:07,7.0066808326,0.790432868798,19.1267967182,2.08235919021,1.11500433005,0.389265048405,0.818011267328,0.477754731299
2014-06-27 13:01:48,4.49230902723,0.769118306367,17.1327783298,2.0662748458,0.926346707947,0.378437950634,1.58538808444,0.490345057056
2014-06-27 14:02:30,3.07923378001,0.732644955301,15.7511289147,2.0476495473,0.570224018444,0.372406857965,1.21162659049,0.478651415328
2014-06-27 15:03:10,2.70164652207,0.730350002757,19.8716506474,2.08696616987,1.07291682126,0.380261675132,0.949252562522,0.477409362985
2014-06-27 16:03:52,2.26594942297,0.73938720896,18.2725591755,2.07297260501,0.756385230757,0.381673825479,0.696873669361,0.472537086965
2014-06-27 17:04:32,2.20211048374,0.728126412593,19.1196655791,2.07539968626,0.837852313845,0.375051919693,1.27226649599,0.487561750768
2014-06-27 18:05:13,2.536014744,0.738165618867,18.5995162936,2.07341440312,1.22183034764,0.379333192832,0.767581815215,0.475249437403
2014-06-27 19:05:56,2.2829114938,0.733010011569,18.6479376431,2.07459172913,0.879783304845,0.374986786034,1.47433042119,0.486801303433
2014-06-27 20:06:36,2.60767770332,0.738019607413,20.7161550373,2.09939526335,0.809940427842,0.381316959865,1.14116172843,0.482837027698
2014-06-27 21:07:17,4.38201717996,0.747193900641,17.4135169847,2.0550359531,0.707501010974,0.376456157453,1.07041024328,0.483393444384
2014-06-27 22:07:59,4.06907787544,0.755987423075,20.4364691796,2.09889178201,0.677204041329,0.376349753938,1.13108494844,0.47540668796
2014-06-27 23:08:39,5.21475022147,0.767608894208,20.074147212,2.08809672686,0.788979174278,0.3744584903,0.898795792498,0.478552990612
2014-06-28 00:09:17,4.80148907642,0.768186577462,17.1602400271,2.06627712598,1.2873143021,0.378753611437,1.41383297102,0.484741169477
2014-06-28 01:09:57,6.50134179029,0.784449119183,19.7572388131,2.08929658372,0.716789150791,0.379063342586,1.37350708138,0.480547951736
2014-06-28 02:10:36,8.80124055728,0.812704808174,17.0382640393,2.06018076366,0.686492189683,0.378936100488,1.1513795507,0.486939566662
2014-06-28 03:11:19,11.8486407623,0.854649830359,18.5618890207,2.0858104601,0.940558530755,0.38016637303,1.35383120607,0.483777235754
2014-06-28 04:11:55,11.5386170285,0.845004184718,19.4165292265,2.08359811921,1.32276505351,0.382624560053,0.726992497213,0.482438871163
2014-06-28 05:12:35,8.66081655192,0.806923774258,18.5228396481,2.07944694142,0.54672327356,0.368476948022,0.868505941961,0.475910184168
2014-06-28 06:13:16,8.00100147714,0.804219937492,18.8317432353,2.08891576908,1.05460355589,0.379990035653,1.0604825637,0.48718411799
2014-06-28 07:13:57,7.10744551854,0.797902886994,20.2978380974,2.09655564436,1.01962498492,0.385358600102,1.08066535953,0.478273453499
2014-06-28 08:14:37,7.33638508632,0.795581872233,18.1734811674,2.07230303128,0.982327867535,0.375295101025,0.96952335138,0.4814377056
2014-06-28 09:15:17,8.17388479382,0.807271802294,21.3643489031,2.11077269828,0.618955616923,0.37319856509,1.21194663305,0.481424598487
2014-06-28 10:15:58,8.9357359063,0.811053638917,18.6663822945,2.08243080543,0.924189132711,0.38142500427,1.23238733365,0.496212386727
2014-06-28 11:16:40,9.37883439761,0.818622212453,17.1217648346,2.06655225453,1.04293210005,0.380261776611,1.20191254784,0.487582998201
2014-06-28 12:17:21,9.37184235999,0.825644249448,20.2023103073,2.08990985891,0.912487438213,0.377072693703,0.615892945452,0.488033818801
2014-06-28 13:18:01,10.8325415912,0.843966251225,17.9641924755,2.07081387488,0.865906179726,0.378254837183,1.51531628085,0.496998261108
2014-06-28 14:18:39,10.3350784969,0.833470145382,23.0186228446,2.12969577566,1.07812216753,0.393049489759,0.747172215676,0.488827627029
2014-06-28 15:19:22,11.7183823485,0.848156046843,21.0483569727,2.11120002956,1.27158875933,0.384813275215,0.787624824657,0.483757625662
2014-06-28 16:20:01,12.3652456165,0.858901334511,18.8486529636,2.08646882788,1.12009772087,0.374816664669,0.898840062206,0.484843251747
2014-06-28 17:20:41,12.5487479419,0.862723463592,17.6815194477,2.08187355853,1.10381503523,0.385307904199,1.24266923235,0.507541334853
2014-06-28 18:21:22,12.3998653127,0.852344858343,18.0031167961,2.07577672734,0.94299818914,0.382043447688,1.14166806739,0.485827811258
2014-06-28 19:22:02,11.057304035,0.837220320297,17.3180072404,2.06326250955,0.380971219385,0.384729616035,0.929176592962,0.495904060609
2014-06-28 20:22:37,7.66435211129,0.808400117021,17.4043134924,2.06979134692,1.28547477006,0.377133828829,0.908938584162,0.480317714204
2014-06-28 21:23:13,8.43433285624,0.814640661108,19.6080026999,2.08590426821,1.01507536664,0.38192784125,1.1616168194,0.491855625454
2014-06-28 22:23:53,8.11228634129,0.801852186259,18.7316782963,2.08001538694,0.376453691185,0.390158669203,0.949369849882,0.481163721174
2014-06-28 23:24:32,8.82421534916,0.807113144283,21.2123328512,2.1073584558,0.707428863154,0.372021638017,0.929152324427,0.482429842154
2014-06-29 00:25:10,8.688836586,0.818768699396,17.9989026553,2.07097621038,0.847287678901,0.377847443753,0.585439702353,0.482896384894
2014-06-29 01:25:52,10.4878230012,0.827745505419,20.406623558,2.09995883667,0.966158184002,0.385857107295,0.757311443972,0.481814857169
2014-06-29 02:27:27,11.882311405,0.856861577036,16.5400263237,2.0571503502,1.05017935147,0.390185857551,1.17187813863,0.484235508098
2014-06-29 03:28:06,13.6566987512,0.881508047135,18.1432192497,2.07878692092,0.912671672924,0.399700676335,1.20237360603,0.487092418076
2014-06-29 04:28:46,18.3805112916,0.926593594483,19.9369013707,2.10167720987,1.10427245353,0.381002578654,1.39506844398,0.497520055183
2014-06-29 05:29:28,28.3029789304,1.02728063548,19.4044485568,2.1018476102,0.704895792758,0.389161033108,0.848222985599,0.501627400864
2014-06-29 06:30:08,33.3273581393,1.07759480193,19.7201259633,2.10516884239,0.71187290721,0.394494098589,0.980141959439,0.501617400847
2014-06-29 07:30:47,35.7488415547,1.09247773528,15.1272316383,2.0718989416,0.969330309652,0.392858902654,1.34558045075,0.508195366967
2014-06-29 08:31:26,34.9586075158,1.08566478544,18.3535165461,2.09208513054,0.41945998692,0.392483560342,0.980106038572,0.498234987012
2014-06-29 09:32:04,20.6314373721,0.956768732438,19.8265122089,2.10623174151,0.880163487423,0.389241993995,0.919159553872,0.497433027363
2014-06-29 10:32:42,18.6442491757,0.916669705878,18.2658989696,2.09423973139,0.485477427522,0.386979330134,1.15205974407,0.490062409358
2014-06-29 11:33:15,18.1976738386,0.920706268447,19.4960999136,2.10249179721,1.27934639188,0.390314174578,1.31401451205,0.481577404313
2014-06-29 12:33:51,17.8492741505,0.915806031921,20.9990939662,2.11437194846,0.665301502155,0.377074682387,1.16213909378,0.493980072047
2014-06-29 13:34:30,19.0342486714,0.934595069127,19.8765032422,2.1096347752,0.522814546434,0.392373340705,0.503898423857,0.493426799932
2014-06-29 14:35:10,23.5370823949,0.973706628114,19.5943226049,2.10356227148,0.356835260623,0.371824850968,1.12180785231,0.488304341507
2014-06-29 15:35:51,13.3482270495,0.936108666457,18.7158136011,2.20349167431,0.519267722855,0.397503043464,0.965659771609,0.494387322965
2014-06-29 16:39:41,15.9511139122,0.891870451388,16.6862999544,2.06712276125,0.485604804574,0.386895302472,1.63780212524,0.4823586388
2014-06-29 17:40:23,20.6766031637,0.938757475956,19.729695688,2.11598889192,0.679263806613,0.378667626151,1.04072822246,0.494950967115
2014-06-29 18:40:59,18.4670748042,0.916206151417,17.1146356158,2.07422982102,0.583547166312,0.383703403376,0.544431558208,0.488395487699
2014-06-29 19:41:39,13.355488201,0.87185342992,18.9369206718,2.09543886671,0.548619469148,0.388979112274,0.969731999809,0.491206477889
2014-06-29 20:42:17,12.3612194182,0.857867708396,16.4674761298,2.06077134051,0.378574723959,0.373805025185,0.797711661661,0.489513345563
2014-06-29 21:42:57,10.9142828128,0.833497501631,18.2022629623,2.07764580803,0.85432111466,0.378672227034,0.757251155422,0.476825843102
2014-06-29 22:43:38,10.8457491021,0.855240585435,15.9629112671,2.05914078259,0.86832511346,0.384733332641,0.686433531543,0.480058378223
2014-06-29 23:44:18,12.7444003435,0.86251836453,17.5534785076,2.06872939344,0.910326837924,0.380088235372,0.848273204194,0.481790187326
2014-06-30 00:44:57,13.4587642271,0.856215860047,20.3796288982,2.10311220883,0.635016846789,0.385951893153,1.14174720726,0.496739578376
2014-06-30 01:45:37,12.6679177025,0.855706040379,23.5573330165,2.13599557202,1.11334963104,0.387894685692,1.1720625128,0.488595080447
2014-06-30 02:46:16,10.9182144083,0.839123249867,19.6792627938,2.10265148067,0.887002951921,0.371403401286,0.696522787762,0.484128169701
2014-06-30 03:46:57,12.8923467642,0.854396576615,20.6830840785,2.10755511177,0.940767193229,0.384931244046,0.989982043117,0.493298475092
2014-06-30 04:47:35,14.3367899506,0.880280398825,17.057847361,2.0686477225,0.646656350338,0.385713246026,1.52646597137,0.490576620272
2014-06-30 05:48:15,14.8272147783,0.89343264245,20.2563325008,2.10394028015,1.00845119442,0.390488917258,1.01022242295,0.48279025683
2014-06-30 06:48:56,13.2071133705,0.862487417345,20.0545630374,2.10344615415,0.515929718642,0.377961346751,0.919121271726,0.489755702883
2014-06-30 07:49:36,15.9674921826,0.894127878444,17.8532098275,2.08276242748,0.824053825419,0.40101469154,1.62772941708,0.491007342484
2014-06-30 08:50:17,33.9296155132,1.0873521474,20.2140757533,2.12206467729,0.859348668313,0.396414775079,0.655283638408,0.503385326232
2014-06-30 09:50:58,40.0866255524,1.12998409907,20.2685137781,2.12330833149,0.812570047653,0.393277024787,0.533105879248,0.504481902596
2014-06-30 10:51:41,38.0632108382,1.1151141536,20.6431764077,2.12895596827,0.608690559302,0.394539109709,0.959969032745,0.502401149378
2014-06-30 11:52:22,30.9453822781,1.04326167665,17.3532560065,2.08574663133,0.880345714156,0.394013410996,1.20335199858,0.49203365491
2014-06-30 12:53:02,30.5302050198,1.04393110965,19.6609320894,2.10982942942,1.04412506941,0.39456599002,0.858359236244,0.504836593978
2014-06-30 13:53:42,24.4403563908,0.991490233435,19.1887036041,2.11266620681,0.389235909606,0.383194159043,0.320925347922,0.490822142665
2014-06-30 14:54:22,17.1853136197,0.912461181213,18.779557625,2.09188513413,0.660598474473,0.378168664091,1.34454567022,0.488635045827
2014-06-30 15:55:02,11.5618655477,0.841271170985,17.2691981421,2.06392128512,0.60937853455,0.384728789412,1.56665036639,0.49462126484
2014-06-30 16:55:43,6.19603510352,0.790128004171,16.9932047637,2.05948735541,0.840310950621,0.386252773715,0.67638221379,0.484431169162
2014-06-30 17:56:23,6.37200953492,0.778927027515,19.153082509,2.08487705724,0.917230381324,0.380722461589,0.868505941961,0.495446550464
2014-06-30 18:57:00,6.68007605127,0.795419018454,20.0659020754,2.09580051893,0.663120629486,0.379636989087,0.858395830986,0.480577082817
2014-06-30 19:57:38,4.87358186097,0.767415423279,17.6178623198,2.06503834236,0.991807499216,0.38252661449,1.68733431477,0.486888175086
2014-06-30 20:58:14,6.00743295743,0.761705665684,18.8252802216,2.08249449783,0.872908134392,0.37901785341,1.3031247869,0.488942830785
2014-06-30 21:58:52,5.66982879957,0.778586305385,16.3684419612,2.04989341589,0.816967585175,0.382199082695,0.898825520607,0.477933525413
2014-06-30 22:59:34,6.60275335719,0.788645794891,17.5033055171,2.06964558806,0.551261302254,0.381430008213,1.26272196661,0.486446160348
2014-07-01 00:00:16,7.19095815851,0.799751448024,19.922176041,2.09828268636,0.635200693505,0.385694099004,0.504696797492,0.471678841859
2014-07-01 01:00:59,7.59136510764,0.801917368899,20.3118939869,2.0967696605,1.22495370443,0.381405049322,0.888725819657,0.477372020462
2014-07-01 02:01:40,7.36285274642,0.796427925063,19.1059002636,2.08646639446,0.877555826224,0.377963689237,1.06052340399,0.488075466526
2014-07-01 03:02:21,8.21175342403,0.803792245859,19.6679072525,2.08814002791,0.961493527559,0.382346534294,1.07067488857,0.486244601411
2014-07-01 04:03:01,8.0765954866,0.818765823705,21.0660316845,2.1035523079,0.667808764064,0.387634726235,1.39409450389,0.499486661938
2014-07-01 05:03:41,8.14626565037,0.798503696015,20.2941856191,2.10313249893,1.21330634354,0.37710942348,0.989827617917,0.478659716327
2014-07-01 06:04:24,8.99490123901,0.814475689321,18.9910437915,2.09022012603,0.558196681143,0.382218802867,0.959503912511,0.474171232491
2014-07-01 07:05:03,11.1166399738,0.839178802947,14.9337257394,2.03802389144,0.94282466759,0.38639488261,1.25258008506,0.489981334237
2014-07-01 08:05:43,10.4932343392,0.831162671522,18.7621260504,2.08972291719,1.15966975203,0.39108132715,0.494446695819,0.485644921643
2014-07-01 09:06:24,13.8760762724,0.870480055489,17.3452724692,2.07502922774,0.560454762729,0.384042722493,0.666215898304,0.480469346112
2014-07-01 10:07:03,15.6276240428,0.878275480612,17.6937894822,2.08552591538,1.09470242606,0.378355571258,1.25303277242,0.48693007974
2014-07-01 11:07:42,14.4391183052,0.878395628536,17.6506530129,2.08303905604,0.910343265854,0.380108036493,0.726860690453,0.486890086356
2014-07-01 12:08:23,11.4112229513,0.846546318991,18.5483191214,2.08753611751,0.663122957991,0.388687051451,1.12125297881,0.491090645378
2014-07-01 13:09:04,9.9468291949,0.827542812336,18.6528330291,2.09166318406,0.823975175701,0.382986984848,0.656209876482,0.485635715082
2014-07-01 14:09:45,11.3410198556,0.830078834066,19.0901485154,2.09078399663,0.653798644636,0.372463924434,1.38410697108,0.491505259358
2014-07-01 15:10:24,10.3868983971,0.822563710517,18.3840118186,2.08390350808,0.765697390218,0.370590670545,1.24256731088,0.484381953754